Погода в Теджене

Погода в Теджене : погода сейчас, прогноз погоды и архив. Всё, что Вы хотите узнать о погоде в Теджене!

Хотите узнать прогноз погоды в Теджене? Тогда Вам сюда: Погода в Теджене

Поиск расширенной информации на нашем сайте:

Другие новости

Новости СМИ2

Главная страница сайта

Новости сайта

03.07.2017

Напоминаем, что на нашем специализированном сайте Метеоцентр.Азия вы можете получить высокодетализированные автоматические прогнозы погоды по пунктам России, СНГ и мира в авиационном формате (включающие направление и скорость ветра, видимость, явления погоды, количество и форму облачности, нижнюю и верхнюю границу облачности).


Погода в Теджене - сегодня

Время (UTC), дата Ветер
(°,м/с) 
Видим.   Явления Облачность Т
(°С)
Тd
(°С)
f(%) Тe
(°С)
Pmin
(гПа)
dP
(гПа)
Po
(мм)
O2
(г/м3)
Тmin Tmax R s Состояние
почвы
18 14.08.18 280 (З) 10 км    ясно 
+26.6 +10.2 36 +28  1008.5  0.4  740  270    +38.4       
21 14.08.18 270 (З) 10 км    ясно 
+24.8 +10.9 42 +27  1008.6  740  272           
00 15.08.18 310 (СЗ) 10 км    ясно 
+21.8 +11.2 51 +25  1009  0.2  741  274           
03 15.08.18 300 (СЗ) 10 км    ясно 
+22.5 +12.3 52 +27  1010.2  1.3  751  277           
06 15.08.18 320 (СЗ) 10 км    ясно 
+33.3 +9.5 23 +34  1010.1  0.6  742  265  +19.7         
09 15.08.18 310 (СЗ) 10 км    ясно 
+37.4 +5.8 14 +37  1009  -0.9  741  262           
12 15.08.18 300 (СЗ) 10 км    ясно 
+39.2 +10.2 18 +41  1007  -1.8  740  259           
15 15.08.18 360 (С) 10 км    ясно 
+34.6 +13.4 28 +41  1007.2  -0.1  740  262    +39.2       
18 15.08.18 290 (З) 10 км    ясно 
+27.4 +14 44 +35  1009.1  1.4  741  269    +39.2       
21 15.08.18 280 (З) 10 км    ясно 
+25 +13.6 49 +32  1009.4  0.2  741  271           
00 16.08.18 350 (С) 10 км    ясно 
+24.9 +11.1 42 +28  1009.8  0.3  741  272           
03 16.08.18 240 (ЮЗ) 10 км    3/0 верхняя 
[Ci sp]
+24.6 +13.1 49 +30  1010.9  0.1  742  272           
06 16.08.18 320 (СЗ) 10 км    ясно 
+32.1 +16.6 39 +44  1011.1  0.8  743  264  +24.9         
09 16.08.18 340 (С) 10 км    ясно 
+36.9 +11.8 22 +41  1011.4  0.6  743  262           
12 16.08.18 340 (С) 10 км    ясно 
+38.8 +8.8 16 +39  1009.7  -1.5  742  260           
15 16.08.18 330 (СЗ) 10 км    ясно 
+34.3 +13.4 28 +41  1008.9  -1.1  741  263    +38.8       
18 16.08.18 290 (З) 10 км    ясно 
+28.5 +12.7 38 +34  1009.6  0.3  741  268    +38.8       
21 16.08.18 тихо ()   10 км    ясно 
+26.3 +12.7 43 +32  1009.7  -0.1  741  270           
00 17.08.18 270 (З) 10 км    ясно 
+25.4 +10.6 39 +28  1009.7  741  271           
03 17.08.18 360 (С) 10 км    ясно 
+25.9 +15 51 +35  1009.6  -0.1  741  270           
06 17.08.18 090 (В) 10 км    ясно 
+33.5 +12.2 27 +38  1009.1  741  264  +24.5         
09 17.08.18 360 (С) 10 км    ясно 
+37.7 +10.7 20 +40  1008  -0.8  741  260           
12 17.08.18 300 (СЗ) 10 км    ясно 
+39 +10.6 18 +41  1005.8  -2  739  259           
15 17.08.18 060 (СВ) 10 км    ясно 
+33.2 +15.9 35 +44  1005.7  -0.5  739  262    +39.2       
18 17.08.18 080 (В) 10 км    ясно 
+26.4 +12.9 43 +32  1006.2  739  269    +39.2       
Время (UTC), дата Ветер
(°,м/с) 
Видим.   Явления Облачность Т
(°С)
Тd
(°С)
f(%) Тe
(°С)
Pmin
(гПа)
dP
(гПа)
Po
(мм)
O2
(г/м3)
Тmin Tmax R s Состояние
почвы

Для получения пояснительной информации подведите курсор к названию столбца.

ПОГОДА в Теджене - архив

Всё, что Вы хотите узнать о погоде в Теджене - удобно и подробно!

Выберите нужную дату (начиная с 1 января 2015* года) и нажмите кнопку "Найти".
Будут отображены архивные сводки погоды по пункту Теджен, начиная с указанной даты.


Отображать данные в формате CSV (для использования в таблицах Excel)


Внимание! Наш архив погоды предназначен исключительно для личного некоммерческого использования в познавательных целях. Если Вам необходимы официальные справки о состоянии погоды (для производственных, юридических, коммерческих и т.п. целей), обращайтесь в органы Росгидромета.

*Примечание: данная дата относится к архиву по метеостанциям СССР (Россия, СНГ, Балтия).
Архив по метеостанциям Зарубежной Европы и Азии (кроме Китая) хранится 10 дней, по другим регионам земного шара (Китай, Африка, Америка, Австралия, Океания) - 1 день.

Теджен - район местоположения метеостанции


Название, широта, долгота, высота метеостанции:
Теджен 37.4°ш. 60.5°д. 186 м над ур. моря [Туркменистан]

Дополнительная информация

В oтличие oт бoльшинства пoгoдных сайтoв мы публикуем пoдрoбную метеoинфoрмацию в детальнoм прoфессиoнальнoм фoрмате.

Характеристики температуры и влажнoсти вoздуха измеряются на высoте 2 м в тени вдали oт зданий и деревьев.
Скoрoсть ветра измеряется на высoте 10 м (на урoвне рoста челoвека скoрoсть ветра ниже в 1.5-2 раза). Если метеoстанция нахoдится в гoрoде или в лесу, тo скoрoсть ветра занижена на 2-4 м/с пo сравнению с oткрытым местoм. Скoрoсть ветра над акватoриями крупных рек и oзёр, а также на вершинах хoлмoв на 2-5 м/с выше, чем в oбычных услoвиях.
Атмoсфернoе давление в разных тoчках местнoсти мoжет значительнo oтличаться oт давления на метеoстанции, в зависимoсти oт услoвий рельефа (при пoдъёме на 10 м давление пoнижается примернo на 1 мм рт.ст.).